When you browse on this site, cookies collect data to enhance your experience and personalize the content and advertising you see.
Visit our Privacy Policy to learn more. By continuing to use the site, you agree to this use of cookies and data.
  • In Spain
  • List of Countries
  • For 7 days
  • Water Temperature
  • Satellite Maps
  • Weather Map
  • Weather Widgets
  • user-avatar
    Login

    Hourly Weather Kalgoorlie

    Today, 16 January, Wednesday

    Time Temperature Precipitation Wind Pressure Humidity
    00:00 +24°C° 0.2 mm 8 mps 724 mmHg 60%
    01:00 +23°C° 0.2 mm 7 mps 724 mmHg 62%
    02:00 +23°C° 0 mm 7 mps 724 mmHg 64%
    03:00 +22°C° 0 mm 6 mps 724 mmHg 66%
    04:00 +22°C° 0 mm 6 mps 724 mmHg 68%
    05:00 +22°C° 0 mm 5 mps 724 mmHg 70%
    06:00 +22°C° 0.1 mm 5 mps 724 mmHg 67%
    07:00 +23°C° 0.1 mm 5 mps 724 mmHg 65%
    08:00 +23°C° 0 mm 5 mps 725 mmHg 65%
    09:00 +26°C° 0 mm 4 mps 724 mmHg 57%
    10:00 +29°C° 0 mm 4 mps 724 mmHg 50%
    11:00 +31°C° 0 mm 3 mps 724 mmHg 42%
    12:00 +34°C° 0 mm 3 mps 724 mmHg 38%
    13:00 +35°C° 0 mm 2 mps 723 mmHg 34%
    14:00 +35°C° 0 mm 2 mps 723 mmHg 36%
    15:00 +36°C° 0 mm 2 mps 723 mmHg 34%
    16:00 +37°C° 0 mm 2 mps 723 mmHg 31%
    17:00 +37°C° 0 mm 2 mps 723 mmHg 29%
    18:00 +37°C° 0 mm 3 mps 723 mmHg 30%
    19:00 +36°C° 0 mm 4 mps 723 mmHg 31%
    20:00 +35°C° 0 mm 4 mps 724 mmHg 30%
    21:00 +35°C° 0 mm 4 mps 724 mmHg 32%
    22:00 +34°C° 0 mm 5 mps 724 mmHg 35%
    23:00 +33°C° 0 mm 5 mps 725 mmHg 38%

    Tomorrow, 17 January, Thursday

    Time Temperature Precipitation Wind Pressure Humidity
    00:00 +30°C° 0 mm 6 mps 724 mmHg 44%
    01:00 +28°C° 0 mm 6 mps 724 mmHg 50%
    02:00 +26°C° 0 mm 7 mps 724 mmHg 56%
    03:00 +24°C° 0 mm 6 mps 725 mmHg 59%
    04:00 +24°C° 0 mm 6 mps 725 mmHg 61%
    05:00 +23°C° 0 mm 5 mps 725 mmHg 64%
    06:00 +25°C° 0 mm 5 mps 725 mmHg 61%
    07:00 +25°C° 0 mm 5 mps 725 mmHg 58%
    08:00 +26°C° 0 mm 5 mps 726 mmHg 56%
    09:00 +28°C° 0 mm 4 mps 726 mmHg 51%
    10:00 +30°C° 0 mm 3 mps 725 mmHg 46%
    11:00 +31°C° 0 mm 3 mps 725 mmHg 41%
    12:00 +34°C° 0 mm 2 mps 725 mmHg 36%
    13:00 +35°C° 0 mm 2 mps 724 mmHg 32%
    14:00 +36°C° 0 mm 1 mps 724 mmHg 27%
    15:00 +37°C° 0 mm 2 mps 724 mmHg 26%
    16:00 +37°C° 0 mm 3 mps 724 mmHg 24%
    17:00 +38°C° 0 mm 4 mps 723 mmHg 23%
    18:00 +37°C° 0 mm 5 mps 724 mmHg 25%
    19:00 +36°C° 0 mm 5 mps 724 mmHg 26%
    20:00 +35°C° 0 mm 6 mps 725 mmHg 28%
    21:00 +33°C° 0 mm 7 mps 725 mmHg 34%
    22:00 +29°C° 0 mm 9 mps 726 mmHg 40%
    23:00 +27°C° 0 mm 11 mps 727 mmHg 46%

    Day after tomorrow, 18 January, Friday

    Time Temperature Precipitation Wind Pressure Humidity
    00:00 +26°C° 0.2 mm 10 mps 727 mmHg 51%
    01:00 +23°C° 0.2 mm 9 mps 728 mmHg 56%
    02:00 +22°C° 0.2 mm 9 mps 728 mmHg 61%
    03:00 +21°C° 0 mm 8 mps 729 mmHg 62%
    04:00 +21°C° 0 mm 8 mps 729 mmHg 63%
    05:00 +20°C° 0 mm 7 mps 729 mmHg 64%
    06:00 +21°C° 0 mm 7 mps 730 mmHg 61%
    07:00 +22°C° 0 mm 7 mps 730 mmHg 58%
    08:00 +23°C° 0 mm 7 mps 731 mmHg 55%
    09:00 +26°C° 0 mm 7 mps 731 mmHg 49%
    10:00 +27°C° 0 mm 6 mps 731 mmHg 44%
    11:00 +29°C° 0 mm 6 mps 730 mmHg 39%
    12:00 +32°C° 0 mm 5 mps 730 mmHg 35%
    13:00 +33°C° 0 mm 5 mps 730 mmHg 31%
    14:00 +34°C° 0 mm 5 mps 729 mmHg 27%
    15:00 +34°C° 0 mm 5 mps 729 mmHg 25%
    16:00 +35°C° 0 mm 4 mps 729 mmHg 23%
    17:00 +35°C° 0 mm 4 mps 729 mmHg 22%
    18:00 +34°C° 0 mm 5 mps 730 mmHg 22%
    19:00 +34°C° 0 mm 5 mps 730 mmHg 23%
    20:00 +33°C° 0 mm 5 mps 731 mmHg 24%
    21:00 +32°C° 0 mm 6 mps 731 mmHg 29%
    22:00 +29°C° 0 mm 8 mps 731 mmHg 35%
    23:00 +27°C° 0 mm 10 mps 732 mmHg 40%

    19 January, Saturday

    Time Temperature Precipitation Wind Pressure Humidity
    00:00 +26°C° 0 mm 9 mps 732 mmHg 46%
    01:00 +24°C° 0 mm 8 mps 732 mmHg 51%
    02:00 +22°C° 0 mm 8 mps 732 mmHg 57%
    03:00 +22°C° 0 mm 7 mps 732 mmHg 58%
    04:00 +22°C° 0 mm 7 mps 732 mmHg 60%
    05:00 +21°C° 0 mm 6 mps 732 mmHg 62%
    06:00 +22°C° 0 mm 6 mps 732 mmHg 58%
    07:00 +23°C° 0 mm 6 mps 733 mmHg 54%
    08:00 +24°C° 0 mm 6 mps 733 mmHg 50%
    09:00 +27°C° 0 mm 6 mps 733 mmHg 44%
    10:00 +29°C° 0 mm 5 mps 733 mmHg 38%
    11:00 +32°C° 0 mm 5 mps 732 mmHg 33%
    12:00 +33°C° 0 mm 5 mps 732 mmHg 28%
    13:00 +34°C° 0 mm 4 mps 731 mmHg 24%
    14:00 +36°C° 0 mm 4 mps 730 mmHg 20%
    15:00 +36°C° 0 mm 4 mps 730 mmHg 18%
    16:00 +36°C° 0 mm 4 mps 730 mmHg 16%
    17:00 +37°C° 0 mm 4 mps 730 mmHg 15%
    18:00 +36°C° 0 mm 4 mps 730 mmHg 14%
    19:00 +35°C° 0 mm 4 mps 730 mmHg 14%
    20:00 +34°C° 0 mm 4 mps 731 mmHg 14%
    21:00 +33°C° 0 mm 4 mps 731 mmHg 16%
    22:00 +33°C° 0 mm 5 mps 731 mmHg 17%
    23:00 +32°C° 0 mm 5 mps 731 mmHg 19%

    20 January, Sunday

    Time Temperature Precipitation Wind Pressure Humidity
    00:00 +30°C° 0 mm 6 mps 731 mmHg 22%
    01:00 +29°C° 0 mm 6 mps 731 mmHg 25%
    02:00 +28°C° 0 mm 6 mps 730 mmHg 28%
    03:00 +27°C° 0 mm 6 mps 730 mmHg 32%
    04:00 +26°C° 0 mm 6 mps 730 mmHg 37%
    05:00 +25°C° 0 mm 5 mps 730 mmHg 42%
    06:00 +27°C° 0 mm 6 mps 731 mmHg 39%
    07:00 +28°C° 0 mm 6 mps 731 mmHg 35%
    08:00 +30°C° 0 mm 6 mps 732 mmHg 32%
    09:00 +33°C° 0 mm 5 mps 731 mmHg 28%
    10:00 +35°C° 0 mm 4 mps 731 mmHg 24%
    11:00 +37°C° 0 mm 3 mps 731 mmHg 20%
    12:00 +38°C° 0 mm 3 mps 730 mmHg 18%
    13:00 +39°C° 0 mm 3 mps 730 mmHg 16%
    14:00 +40°C° 0 mm 3 mps 729 mmHg 14%
    15:00 +40°C° 0 mm 3 mps 729 mmHg 13%
    16:00 +40°C° 0 mm 3 mps 728 mmHg 13%
    17:00 +40°C° 0 mm 3 mps 728 mmHg 12%
    18:00 +39°C° 0 mm 3 mps 728 mmHg 13%
    19:00 +38°C° 0 mm 3 mps 728 mmHg 13%
    20:00 +37°C° 0 mm 4 mps 729 mmHg 14%
    21:00 +37°C° 0 mm 4 mps 729 mmHg 15%
    22:00 +36°C° 0 mm 5 mps 729 mmHg 16%
    23:00 +35°C° 0 mm 5 mps 729 mmHg 17%

    21 January, Monday

    Time Temperature Precipitation Wind Pressure Humidity
    00:00 +35°C° 0 mm 5 mps 728 mmHg 17%
    01:00 +34°C° 0 mm 6 mps 727 mmHg 18%
    02:00 +33°C° 0 mm 6 mps 727 mmHg 18%
    03:00 +32°C° 0 mm 6 mps 727 mmHg 19%
    04:00 +32°C° 0 mm 5 mps 727 mmHg 20%
    05:00 +30°C° 0 mm 5 mps 727 mmHg 21%
    06:00 +33°C° 0 mm 6 mps 727 mmHg 19%
    07:00 +34°C° 0 mm 6 mps 727 mmHg 17%
    08:00 +36°C° 0 mm 7 mps 727 mmHg 16%
    09:00 +39°C° 0 mm 6 mps 727 mmHg 14%
    10:00 +41°C° 0 mm 6 mps 727 mmHg 13%
    11:00 +42°C° 0 mm 5 mps 726 mmHg 11%
    12:00 +43°C° 0 mm 4 mps 726 mmHg 10%
    13:00 +44°C° 0 mm 4 mps 725 mmHg 8%
    14:00 +45°C° 0 mm 3 mps 724 mmHg 7%
    15:00 +45°C° 0 mm 3 mps 724 mmHg 6%
    16:00 +45°C° 0 mm 3 mps 724 mmHg 6%
    17:00 +45°C° 0 mm 3 mps 723 mmHg 6%
    18:00 +44°C° 0 mm 3 mps 724 mmHg 6%
    19:00 +42°C° 0 mm 3 mps 724 mmHg 7%
    20:00 +41°C° 0 mm 4 mps 724 mmHg 7%
    21:00 +36°C° 0 mm 6 mps 724 mmHg 20%
    22:00 +33°C° 0 mm 9 mps 724 mmHg 33%
    23:00 +28°C° 0 mm 12 mps 725 mmHg 46%
    Show more